Location: *
(49.7115°N, 15.0136°E)
Time: 05:01:15
(UTC+00:00)

ARGOS - Pass Details

Date: 27 February 2020
Orbit: 819 x 835 km, 98.5° (Epoch: 29 March)

Event Time Altitude Azimuth Distance (km) Brightness Sun altitude
Exits shadow 19:04:37 - 182° (S) 2,514 5.5 -24.2°
Reaches altitude 10° 19:04:49 10° 182° (S) 2,440 5.4 -24.3°
Maximum altitude 19:10:07 54° 260° (W) 1,006 3.8 -25.1°
Drops below altitude 10° 19:15:28 10° 338° (NNW) 2,459 6.1 -25.9°
Sets 19:17:54 0° 343° (NNW) 3,397 6.8 -26.3°
